Location: Bacharowice
(49.9333°N, 19.5833°E)
Time: 08:23:37
(UTC+00:00)

Cosmos 2344 - Pass Details

Date: 02 October 2021
Orbit: 1235 x 3007 km, 63.3° (Epoch: 19 October)

Event Time Altitude Azimuth Distance (km) Brightness Sun altitude
Rises 22:27:55 0° 316° (NW) 4,587 7.0 -44.0°
Reaches altitude 10° 22:30:40 10° 310° (NW) 3,757 6.3 -44.0°
Enters shadow 22:35:36 34° 287° (WNW) 2,624 5.1 -44.0°
